Location: *
(2.5500°S, 65.9667°W)
Time: 12:16:45
(UTC+00:00)

RS-44 - Visible Passes

Search period start: 28 June 2022 00:00
Search period end: 08 July 2022 00:00
Orbit: 1175 x 1509 km, 82.5° (Epoch: 27 June)

Date Brightness Start Highest point End Pass type
(mag) Time Alt. Az. Time Alt. Az. Time Alt. Az.
28 Jun ? 01:22:58 49° W 01:22:58 49° W 01:30:20 10° NNW visible
28 Jun ? 23:52:35 32° ESE 23:53:28 33° E 00:00:17 10° NNE visible
29 Jun ? 01:45:03 24° WSW 01:46:33 26° W 01:52:48 10° NNW visible
30 Jun ? 00:14:19 39° SSE 00:17:07 61° E 00:24:55 10° NNE visible
30 Jun ? 02:07:18 10° WSW 02:10:18 13° W 02:13:23 10° WNW visible
01 Jul ? 00:35:17 20° S 00:40:47 76° W 00:48:47 10° N visible
01 Jul ? 23:06:13 10° SE 23:11:30 21° E 23:17:00 10° NE visible
02 Jul ? 00:57:33 10° SSW 01:04:30 42° W 01:11:56 10° NNW visible
02 Jul ? 23:28:14 10° SSE 23:35:09 39° E 23:42:27 10° NNE visible
03 Jul ? 01:22:41 10° SW 01:28:15 22° W 01:34:07 10° NW visible
03 Jul ? 23:51:16 10° S 23:58:48 72° E 00:06:52 10° N visible
04 Jul ? 01:51:04 10° W 01:52:01 10° W 01:52:59 10° W visible
05 Jul ? 00:14:59 10° SSW 00:22:29 66° W 00:30:33 10° N visible
05 Jul ? 22:47:12 10° SE 22:53:12 25° E 22:59:28 10° NE visible
06 Jul ? 00:39:24 10° SSW 00:46:13 36° W 00:53:30 10° NNW visible
06 Jul ? 23:09:35 10° SSE 23:16:50 46° E 23:24:34 10° NNE visible
07 Jul ? 01:04:53 10° SW 01:09:58 19° W 01:15:19 10° NW visible
07 Jul ? 23:32:49 10° S 23:40:30 83° E 23:48:46 10° N visible
